GW6499 Weather Reports


Display with metric or nautical units.
time (UTC)temp
F
wind
direction
speed
MPH
gust
MPH
rain 1hr
in
rain 24hr
in
rain mn
in
humidity
%
barometer
mb
20260505065012 45 259 0.0 0.0 0.00 0.10 0.00 86 1013.1
20260505064538 46 259 0.0 0.0 0.00 0.10 0.00 86 1013.2
20260505064010 46 259 0.0 0.0 0.00 0.10 0.00 86 1013.2
20260505063509 46 259 0.0 0.0 0.00 0.10 0.00 86 1013.0
20260505063029 45 260 0.0 0.0 0.00 0.10 0.00 86 1013.0
20260505062511 45 260 0.0 0.0 0.00 0.10 0.00 86 1013.1
20260505062006 45 260 0.0 0.0 0.00 0.10 0.00 85 1013.1
20260505061530 45 260 0.0 0.0 0.00 0.10 0.00 85 1013.1
20260505061007 45 261 0.0 0.0 0.00 0.10 0.00 85 1013.2
20260505060508 45 261 0.0 0.0 0.00 0.10 0.00 85 1013.2
20260505060022 45 262 0.0 0.0 0.00 0.10 0.00 84 1013.2
20260505055512 45 263 0.0 0.0 0.00 0.10 0.10 84 1013.1
20260505055011 45 266 0.0 0.0 0.00 0.10 0.10 84 1013.1
20260505054544 45 266 0.0 0.0 0.00 0.10 0.10 85 1013.2
20260505054012 45 273 0.0 0.0 0.00 0.10 0.10 85 1013.3
20260505053510 45 273 0.0 0.0 0.00 0.10 0.10 85 1013.1
20260505053032 45 273 0.0 0.0 0.00 0.10 0.10 85 1013.1
20260505052507 45 273 0.0 0.0 0.00 0.10 0.10 85 1013.2
20260505052014 45 273 0.0 0.0 0.00 0.10 0.10 85 1013.2
20260505051517 45 273 0.0 0.0 0.00 0.10 0.10 85 1013.2
20260505051009 45 273 0.0 0.0 0.00 0.10 0.10 85 1013.4
20260505050506 45 273 0.0 0.0 0.00 0.10 0.10 85 1013.6
20260505041514 45 277 0.0 0.0 0.05 0.10 0.10 86 1013.7
20260505041006 45 277 0.0 0.0 0.06 0.10 0.10 86 1014.0
20260505040506 45 279 0.0 3.0 0.07 0.10 0.10 86 1014.0
20260505040018 45 360 0.0 3.0 0.07 0.10 0.10 86 1013.8
20260505035507 45 360 0.0 0.0 0.06 0.09 0.09 85 1013.8
20260505035007 45 360 0.0 0.0 0.06 0.09 0.09 85 1013.5
20260505034526 45 360 0.0 8.0 0.06 0.09 0.09 84 1013.6
20260505034011 45 360 0.0 13.0 0.05 0.08 0.08 84 1013.8
20260505033510 46 360 4.0 14.0 0.05 0.08 0.08 84 1013.9
20260505033024 46 320 8.0 14.0 0.04 0.07 0.07 83 1014.1
20260505032503 46 360 7.0 14.0 0.04 0.07 0.07 83 1014.0
20260505032005 47 360 7.0 15.0 0.03 0.06 0.06 82 1013.8
20260505031526 47 360 10.0 15.0 0.02 0.05 0.05 81 1013.5
20260505031003 48 319 9.0 15.0 0.01 0.04 0.04 79 1013.4
20260505030504 48 282 5.0 14.0 0.00 0.03 0.03 77 1013.4
20260505030015 49 332 8.0 14.0 0.00 0.03 0.03 75 1013.3
20260505025507 49 360 4.0 10.0 0.00 0.03 0.03 75 1013.2
20260505025008 49 331 6.0 10.0 0.00 0.03 0.03 74 1013.0
20260505024529 49 340 4.0 11.0 0.00 0.03 0.03 73 1012.9
20260505024007 49 5 4.0 11.0 0.00 0.03 0.03 73 1012.8
20260505023508 49 360 5.0 12.0 0.00 0.03 0.03 72 1012.6
20260505023030 50 327 3.0 12.0 0.00 0.03 0.03 71 1012.5
20260505022508 50 12 7.0 13.0 0.00 0.03 0.03 69 1012.4
20260505022012 51 9 3.0 13.0 0.00 0.03 0.03 68 1012.3
20260505021527 52 180 0.0 3.0 0.00 0.03 0.03 71 1012.3
20260505021006 52 178 0.0 0.0 0.00 0.03 0.03 71 1012.0
20260505020503 52 178 0.0 0.0 0.00 0.03 0.03 72 1012.1
20260505020020 52 178 0.0 0.0 0.00 0.03 0.03 72 1012.1
20260505015504 52 178 0.0 0.0 0.00 0.03 0.03 72 1012.2
20260505015007 52 178 0.0 0.0 0.00 0.03 0.03 71 1012.2
20260505014512 52 178 0.0 0.0 0.00 0.03 0.03 72 1012.2
20260505014008 52 178 0.0 0.0 0.00 0.03 0.03 71 1011.9
20260505013509 52 178 0.0 0.0 0.01 0.03 0.03 72 1011.8
20260505013017 51 178 0.0 0.0 0.01 0.03 0.03 71 1011.8
20260505012509 51 178 0.0 0.0 0.01 0.03 0.03 70 1011.8
20260505012009 51 178 0.0 0.0 0.01 0.03 0.03 71 1011.9
20260505011531 51 178 0.0 0.0 0.02 0.03 0.03 71 1011.9
20260505011009 51 177 0.0 0.0 0.03 0.03 0.03 68 1011.9
20260505010513 51 177 0.0 0.0 0.03 0.03 0.03 70 1011.8
20260505010027 51 177 0.0 0.0 0.03 0.03 0.03 71 1011.7
20260505005503 51 177 0.0 0.0 0.03 0.03 0.03 72 1011.8
20260505005004 51 177 0.0 0.0 0.03 0.03 0.03 71 1011.8
20260505004529 51 177 0.0 3.0 0.03 0.03 0.03 73 1011.9
20260505004007 51 177 0.0 5.0 0.03 0.03 0.03 72 1011.9
20260505003507 51 177 1.0 6.0 0.02 0.02 0.02 70 1012.0
20260505003016 52 173 1.0 6.0 0.02 0.02 0.02 69 1012.2
20260505002509 52 168 1.0 11.0 0.02 0.02 0.02 66 1012.3
20260505002012 53 170 1.0 14.0 0.02 0.02 0.02 58 1012.6
20260505001520 55 178 4.0 14.0 0.01 0.01 0.01 57 1012.5
20260505001014 57 271 0.0 11.0 0.00 0.00 0.00 48 1012.3
20260505000513 56 360 5.0 11.0 0.00 0.00 0.00 46 1011.9
20260505000036 56 332 5.0 12.0 0.00 0.00 0.00 46 1011.7
20260504235510 56 275 8.0 12.0 0.00 0.00 0.00 46 1011.6
20260504235010 57 360 9.0 12.0 0.00 0.00 0.00 46 1011.5
20260504234528 57 341 3.0 13.0 0.00 0.00 0.00 46 1011.5
20260504234010 57 350 5.0 13.0 0.00 0.00 0.00 45 1011.3
20260504233503 57 5 3.0 14.0 0.00 0.00 0.00 45 1011.3
20260504233013 57 349 8.0 14.0 0.00 0.00 0.00 44 1011.2
20260504232507 57 346 7.0 13.0 0.00 0.00 0.00 45 1011.2
20260504232010 57 360 8.0 17.0 0.00 0.00 0.00 44 1011.1
20260504231518 57 5 9.0 20.0 0.00 0.00 0.00 45 1011.1
20260504231009 57 316 7.0 20.0 0.00 0.00 0.00 45 1011.1
20260504230506 58 360 9.0 21.0 0.00 0.00 0.00 44 1010.9
20260504230022 59 360 11.0 21.0 0.00 0.00 0.00 43 1010.8
20260504225507 60 5 7.0 19.0 0.00 0.00 0.00 41 1010.7
20260504225015 60 24 7.0 17.0 0.00 0.00 0.00 40 1010.7
20260504224525 60 20 9.0 17.0 0.00 0.00 0.00 39 1010.7
20260504224014 60 330 9.0 16.0 0.00 0.00 0.00 40 1010.8
20260504223511 59 21 9.0 16.0 0.00 0.00 0.00 42 1010.9
20260504223026 59 348 7.0 19.0 0.00 0.00 0.00 42 1011.0
20260504222511 59 12 12.0 19.0 0.00 0.00 0.00 42 1011.1
20260504222010 59 344 10.0 22.0 0.00 0.00 0.00 40 1011.0
20260504221515 59 41 12.0 22.0 0.00 0.00 0.00 39 1010.9
20260504221008 59 38 14.0 21.0 0.00 0.00 0.00 39 1010.5
20260504220510 59 32 13.0 21.0 0.00 0.00 0.00 39 1010.4
20260504220020 59 17 10.0 21.0 0.00 0.00 0.00 38 1010.5
20260504215507 60 11 12.0 27.0 0.00 0.00 0.00 36 1010.2
20260504215013 61 13 14.0 27.0 0.00 0.00 0.00 35 1010.1
20260504214524 64 30 14.0 23.0 0.00 0.00 0.00 30 1010.0
20260504214009 64 26 5.0 14.0 0.00 0.00 0.00 27 1009.7
20260504213514 65 21 4.0 14.0 0.00 0.00 0.00 28 1009.5
20260504213029 65 37 1.0 13.0 0.00 0.00 0.00 28 1009.4
20260504212515 65 64 0.0 11.0 0.00 0.00 0.00 28 1009.5
20260504212011 65 53 5.0 12.0 0.00 0.00 0.00 28 1009.6
20260504211526 65 54 5.0 12.0 0.00 0.00 0.00 28 1009.7
20260504211010 66 91 3.0 12.0 0.00 0.00 0.00 27 1009.8
20260504210508 66 80 2.0 10.0 0.00 0.00 0.00 27 1009.9
20260504210022 66 65 2.0 10.0 0.00 0.00 0.00 27 1010.1
20260504205508 66 67 4.0 9.0 0.00 0.00 0.00 28 1010.1
20260504205010 65 78 3.0 10.0 0.00 0.00 0.00 29 1010.1
20260504204524 65 67 2.0 10.0 0.00 0.00 0.00 30 1010.3
20260504204010 64 80 2.0 11.0 0.00 0.00 0.00 30 1010.5
20260504203514 64 32 2.0 11.0 0.00 0.00 0.00 31 1010.7
20260504203028 63 26 5.0 17.0 0.00 0.00 0.00 32 1010.8
20260504202513 63 44 9.0 17.0 0.00 0.00 0.00 33 1010.9
20260504202017 62 39 11.0 15.0 0.00 0.00 0.00 33 1010.8
20260504201526 62 5 5.0 16.0 0.00 0.00 0.00 35 1011.0
20260504201010 61 352 4.0 16.0 0.00 0.00 0.00 36 1011.1
20260504200507 61 360 3.0 11.0 0.00 0.00 0.00 36 1011.3
20260504200016 61 350 6.0 13.0 0.00 0.00 0.00 37 1011.3
20260504195507 60 37 9.0 13.0 0.00 0.00 0.00 37 1011.1
20260504195007 60 40 2.0 13.0 0.00 0.00 0.00 37 1010.9
20260504194518 60 42 3.0 14.0 0.00 0.00 0.00 37 1010.9
20260504194009 60 69 7.0 14.0 0.00 0.00 0.00 35 1010.9
20260504193502 61 55 6.0 14.0 0.00 0.00 0.00 35 1011.0
20260504193004 61 46 3.0 9.0 0.00 0.00 0.00 34 1011.0
20260504192504 62 88 4.0 9.0 0.00 0.00 0.00 33 1011.3
20260504192006 62 175 0.0 10.0 0.00 0.00 0.00 34 1011.5
20260504191508 62 175 2.0 11.0 0.00 0.00 0.00 33 1011.6
20260504191003 62 175 3.0 12.0 0.00 0.00 0.00 31 1011.6
20260504190506 62 159 2.0 12.0 0.00 0.00 0.00 31 1011.4
20260504190010 63 144 4.0 14.0 0.00 0.00 0.00 29 1011.3
20260504185507 63 153 3.0 14.0 0.00 0.00 0.00 28 1011.1
20260504185007 64 175 3.0 13.0 0.00 0.00 0.00 27 1010.9
20260504184518 65 134 4.0 13.0 0.00 0.00 0.00 24 1010.7
20260504184009 65 70 1.0 9.0 0.00 0.00 0.00 23 1010.4
20260504183511 65 78 1.0 10.0 0.00 0.00 0.00 24 1010.3
20260504183019 66 77 4.0 10.0 0.00 0.00 0.00 23 1010.3
20260504182509 66 59 3.0 9.0 0.00 0.00 0.00 23 1010.2
20260504182005 66 65 2.0 9.0 0.00 0.00 0.00 23 1010.2
20260504181507 67 46 3.0 11.0 0.00 0.00 0.00 24 1010.1
20260504181004 67 63 1.0 12.0 0.00 0.00 0.00 25 1010.1
20260504180504 67 79 1.0 12.0 0.00 0.00 0.00 24 1010.1
20260504180010 67 78 0.0 10.0 0.00 0.00 0.00 24 1010.1
20260504175503 67 346 0.0 11.0 0.00 0.00 0.00 24 1010.3
20260504175006 67 40 4.0 14.0 0.00 0.00 0.00 24 1010.2
20260504174514 68 9 8.0 14.0 0.00 0.00 0.00 23 1010.3
20260504174004 68 344 5.0 12.0 0.00 0.00 0.00 21 1010.4
20260504173509 68 360 2.0 9.0 0.00 0.00 0.00 22 1010.5
20260504173020 68 264 0.0 8.0 0.00 0.00 0.00 21 1010.7
20260504172509 68 33 1.0 10.0 0.00 0.00 0.00 22 1010.7
20260504172009 67 20 3.0 12.0 0.00 0.00 0.00 22 1010.9
20260504171524 67 360 5.0 14.0 0.00 0.00 0.00 22 1010.9
20260504171010 67 360 6.0 15.0 0.00 0.00 0.00 24 1010.8
20260504170512 67 360 9.0 16.0 0.00 0.00 0.00 24 1010.9
20260504151006 63 265 0.0 13.0 0.00 0.00 0.00 26 1011.9
20260504150511 63 271 3.0 15.0 0.00 0.00 0.00 26 1012.0
20260504141009 58 360 3.0 10.0 0.00 0.00 0.00 28 1012.0
20260504140509 57 312 3.0 10.0 0.00 0.00 0.00 28 1012.0
20260504130507 54 347 0.0 0.0 0.00 0.00 0.00 29 1011.7
20260504110503 54 360 1.0 6.0 0.00 0.00 0.00 28 1011.7
20260504100502 52 273 0.0 2.0 0.00 0.00 0.00 32 1011.9
20260504081524 53 273 0.0 3.0 0.00 0.00 0.00 33 1012.7
20260504081010 53 274 0.0 3.0 0.00 0.00 0.00 33 1012.8
20260504080508 54 274 0.0 0.0 0.00 0.00 0.00 32 1012.8